カタログに戻る

AZERSPACE 2/INTELSAT 38

運用中通信GEO
NORAD 43632·PAYLOAD·🇦🇿 Azerbaijan

打ち上げ Sep 25, 2018 から Guiana Space Centre

Loading…

TLE

最新Source: CelesTrak SupGP

元期: Sep 14, 2026, 00:00 UTC

1 43632C 18074A   26257.00000000 -.00004076  00000+0  00000+0 0  2573
2 43632   0.0037 210.6622 0001336 309.5428 237.8899  1.00271802    11

AllMySatでAZERSPACE 2/INTELSAT 38をリアルタイム追跡

Download on the App Store